Temp
6 7 10 11 11 11 11 11 11 11 12 12 11 11 11 11 11 12 12 12 11 11 10 10 11 11 11 11 11 11 11 10 10 11 11 10 9 9 9 9 9 9 9
3 8 9 9 10 11 11 11 11 11 11 11 11 11 11 11 10 10 11 11 10 10 10 10 10 10 11 11 11 11 11 11 10 10 10 10 9 9 9 9 8 8 8
1 3 6 7 9 10 10 10 10 10 11 11 11 10 10 10 10 10 10 10 10 10 10 10 9 10 10 10 10 10 10 10 10 10 10 10 9 9 9 8 8 8 8
-1 0 3 4 6 7 8 9 9 9 10 9 11 10 10 10 9 9 8 8 9 9 10 9 9 9 9 10 10 10 10 10 10 9 9 9 9 9 9 9 8 8 8
-3 -2 0 1 3 3 5 6 8 8 8 9 9 10 8 8 8 8 8 8 8 9 9 9 9 9 9 9 9 9 9 9 9 9 9 9 9 9 9 8 8 8 8
-5 -3 -2 -1 -0 2 3 4 5 5 5 5 6 8 8 7 7 7 7 7 7 8 9 9 9 9 9 9 9 9 9 9 8 8 8 8 9 9 8 8 8 8 8
-6 -5 -3 -2 -1 1 2 3 3 3 4 4 4 5 6 6 7 6 7 7 7 7 8 8 8 8 8 9 9 9 9 9 9 9 8 8 8 8 8 8 7 7 7
-7 -6 -5 -4 -2 -1 -0 1 3 2 3 3 3 4 4 5 5 6 6 7 7 6 7 7 7 7 7 8 8 8 8 8 9 8 8 8 8 7 8 7 7 6 6
-8 -7 -6 -6 -4 -4 -2 -1 1 1 2 2 3 4 4 4 4 5 6 6 6 6 6 6 6 7 7 7 8 7 8 8 8 8 7 7 7 7 7 7 7 6 6
-9 -8 -6 -8 -5 -4 -4 -3 -1 -0 1 2 2 3 3 3 4 4 4 4 5 5 5 6 6 6 7 6 7 7 7 7 7 7 7 7 7 7 6 6 6 6 6
-11 -10 -9 -8 -8 -6 -5 -5 -3 -2 -0 -1 1 1 1 1 1 3 4 4 4 4 5 5 6 6 6 6 6 6 6 6 6 6 6 6 6 8 7 6 6 6 6
-10 -10 -9 -9 -8 -8 -7 -7 -5 -4 -3 -3 -2 -1 -1 -0 -0 1 2 3 3 4 4 4 5 5 6 6 6 6 6 6 5 5 5 6 6 7 7 6 7 6 6
-10 -10 -9 -9 -9 -8 -7 -6 -6 -5 -5 -4 -4 -2 -2 -1 -1 -0 0 2 1 1 2 4 4 4 5 5 5 5 5 5 5 5 5 6 6 6 5 5 6 6 6
-11 -11 -11 -10 -9 -9 -8 -8 -7 -7 -6 -5 -5 -4 -3 -3 -3 -2 -1 -0 1 0 1 2 2 2 2 3 4 5 4 4 4 4 4 5 5 5 5 5 5 5 5
-12 -12 -12 -12 -11 -10 -9 -9 -9 -9 -8 -7 -6 -5 -4 -4 -4 -4 -2 -1 -0 0 1 2 2 2 2 1 2 3 4 4 3 3 3 4 4 4 5 5 5 4 5
-12 -12 -12 -13 -12 -11 -11 -10 -11 -11 -11 -9 -9 -8 -7 -6 -6 -4 -4 -3 -2 -1 -1 0 1 1 2 1 1 1 2 2 2 3 3 3 4 4 4 4 4 4 4
-13 -13 -13 -13 -13 -12 -12 -11 -10 -10 -11 -12 -12 -11 -10 -10 -7 -7 -5 -4 -3 -3 -2 -1 -1 -1 -1 0 1 0 1 1 2 2 2 3 3 3 3 3 4 5 4
-13 -13 -13 -13 -13 -13 -13 -12 -12 -12 -11 -10 -11 -11 -12 -11 -11 -10 -7 -5 -5 -6 -6 -6 -5 -5 -4 -3 -2 -1 -0 0 1 1 1 2 2 2 3 3 3 3 3
-14 -13 -13 -13 -14 -14 -13 -13 -13 -13 -12 -12 -11 -11 -11 -11 -9 -9 -8 -7 -7 -6 -7 -7 -7 -6 -6 -5 -5 -3 -2 -1 -1 -1 -0 0 1 1 1 2 2 3 3
-14 -14 -14 -15 -15 -14 -14 -14 -14 -13 -13 -13 -12 -12 -11 -11 -10 -10 -10 -9 -9 -8 -8 -8 -8 -9 -8 -7 -7 -5 -4 -4 -3 -3 -3 -2 -1 -1 -0 1 1 1 2
-15 -15 -14 -16 -15 -15 -15 -14 -14 -14 -14 -13 -13 -13 -14 -14 -13 -11 -11 -11 -10 -10 -9 -9 -9 -8 -8 -8 -7 -7 -6 -6 -5 -5 -5 -4 -4 -3 -2 -2 -1 0 1
-15 -15 -15 -16 -16 -16 -16 -15 -15 -15 -14 -14 -13 -13 -14 -14 -13 -13 -12 -11 -11 -11 -11 -10 -10 -10 -10 -9 -8 -8 -8 -7 -6 -6 -5 -4 -3 -3 -3 -2 -1 -0 -0
-17 -16 -16 -17 -16 -16 -16 -16 -16 -15 -15 -15 -15 -14 -14 -14 -13 -13 -13 -13 -12 -12 -12 -12 -11 -11 -10 -10 -10 -10 -9 -9 -9 -8 -8 -6 -5 -4 -4 -3 -2 -1 -0
-17 -17 -17 -17 -16 -16 -16 -16 -16 -16 -16 -16 -15 -15 -15 -15 -14 -14 -14 -14 -13 -13 -13 -12 -12 -12 -11 -11 -10 -11 -11 -10 -10 -10 -9 -9 -8 -6 -5 -5 -4 -3 -2
-17 -17 -17 -17 -16 -16 -16 -16 -16 -17 -16 -16 -16 -16 -16 -15 -15 -15 -14 -14 -14 -14 -13 -13 -13 -13 -12 -12 -11 -11 -11 -11 -10 -10 -10 -11 -10 -8 -7 -6 -5 -4 -4
-17 -16 -16 -16 -16 -16 -16 -16 -16 -16 -16 -16 -16 -16 -16 -16 -16 -16 -15 -15 -14 -14 -14 -14 -13 -13 -13 -12 -12 -11 -11 -11 -11 -11 -11 -11 -11 -9 -8 -7 -6 -6 -6
Height
1475 1469 1475 1478 1491 1494 1501 1511 1519 1526 1533 1539 1545 1550 1555 1560 1563 1567 1571 1575 1578 1582 1585 1587 1590 1593 1594 1596 1598 1600 1602 1604 1604 1606 1607 1607 1606 1607 1606 1606 1605 1605 1604
1468 1470 1467 1482 1486 1489 1499 1508 1515 1522 1529 1534 1540 1546 1551 1556 1559 1563 1567 1571 1574 1576 1579 1582 1584 1587 1589 1591 1593 1596 1598 1599 1600 1601 1603 1604 1603 1603 1603 1602 1602 1602 1601
1471 1472 1468 1473 1478 1488 1498 1504 1511 1519 1524 1530 1536 1541 1547 1551 1555 1558 1562 1565 1568 1571 1574 1576 1579 1582 1584 1586 1588 1590 1593 1595 1596 1596 1597 1599 1599 1599 1598 1598 1599 1599 1598
1467 1472 1471 1475 1481 1488 1494 1500 1506 1514 1520 1525 1529 1536 1542 1546 1549 1553 1556 1559 1562 1564 1568 1571 1574 1576 1579 1581 1584 1586 1587 1589 1591 1592 1592 1594 1595 1595 1595 1595 1595 1594 1593
1475 1476 1472 1483 1475 1485 1488 1492 1501 1509 1516 1521 1524 1529 1536 1540 1543 1546 1549 1553 1556 1558 1562 1565 1568 1571 1574 1576 1579 1581 1583 1584 1585 1587 1588 1589 1590 1590 1591 1591 1590 1589 1588
1481 1476 1477 1484 1487 1479 1482 1491 1497 1504 1512 1517 1521 1524 1529 1532 1536 1540 1543 1546 1549 1553 1557 1560 1563 1566 1568 1571 1573 1575 1578 1579 1580 1581 1583 1583 1584 1585 1586 1585 1585 1584 1582
1484 1478 1478 1476 1482 1479 1483 1489 1493 1504 1507 1515 1517 1519 1522 1525 1529 1533 1537 1541 1544 1547 1551 1554 1557 1559 1562 1565 1567 1569 1571 1573 1575 1577 1577 1578 1579 1581 1581 1580 1579 1578 1578
1482 1479 1478 1483 1473 1481 1488 1488 1494 1502 1501 1509 1512 1515 1517 1520 1525 1528 1531 1534 1538 1541 1544 1547 1550 1553 1556 1558 1561 1563 1565 1567 1569 1570 1571 1573 1574 1575 1575 1575 1574 1573 1572
1490 1487 1481 1484 1486 1485 1486 1488 1493 1497 1501 1503 1509 1511 1514 1517 1521 1523 1525 1528 1531 1535 1539 1542 1545 1548 1550 1552 1553 1555 1558 1560 1562 1563 1565 1566 1567 1568 1569 1568 1567 1567 1565
1488 1485 1478 1489 1482 1483 1486 1489 1491 1494 1495 1498 1506 1509 1513 1513 1514 1518 1521 1523 1527 1530 1533 1537 1539 1542 1545 1545 1548 1549 1551 1553 1555 1556 1557 1558 1560 1560 1561 1561 1560 1559 1558
1488 1488 1491 1488 1483 1482 1485 1491 1486 1487 1488 1498 1501 1505 1508 1510 1512 1515 1517 1518 1520 1523 1526 1529 1532 1534 1537 1539 1541 1543 1545 1547 1548 1548 1549 1550 1551 1551 1552 1553 1553 1552 1551
1493 1490 1489 1488 1486 1489 1488 1488 1488 1489 1492 1495 1497 1499 1506 1506 1510 1512 1513 1513 1515 1518 1520 1522 1525 1528 1531 1533 1535 1537 1539 1540 1540 1540 1541 1541 1542 1543 1543 1544 1545 1545 1545
1490 1489 1490 1490 1487 1488 1486 1488 1491 1490 1490 1492 1495 1496 1498 1502 1507 1507 1508 1509 1510 1513 1513 1516 1519 1521 1523 1525 1527 1529 1530 1531 1532 1532 1532 1533 1534 1536 1536 1536 1537 1537 1537
1490 1489 1489 1489 1488 1488 1487 1489 1491 1488 1489 1491 1492 1493 1497 1502 1503 1501 1503 1504 1506 1507 1507 1510 1512 1514 1516 1517 1519 1521 1522 1523 1524 1524 1525 1526 1527 1528 1528 1529 1528 1529 1528
1490 1489 1489 1489 1488 1488 1489 1489 1488 1488 1489 1490 1490 1493 1494 1496 1496 1495 1495 1497 1498 1500 1502 1503 1505 1509 1510 1511 1512 1513 1515 1515 1516 1517 1517 1517 1518 1520 1520 1521 1521 1521 1520
1489 1489 1489 1489 1488 1487 1488 1488 1487 1487 1487 1488 1489 1490 1490 1489 1489 1489 1489 1490 1492 1494 1494 1495 1498 1500 1501 1503 1504 1505 1507 1508 1509 1509 1509 1509 1510 1511 1511 1512 1512 1512 1511
1488 1486 1487 1488 1486 1486 1487 1485 1484 1485 1486 1487 1487 1486 1485 1485 1484 1484 1485 1485 1487 1487 1486 1488 1489 1491 1493 1494 1496 1498 1499 1500 1500 1502 1501 1502 1502 1502 1503 1503 1503 1502 1501
1486 1486 1486 1485 1485 1485 1484 1482 1481 1482 1482 1483 1483 1483 1482 1481 1481 1480 1479 1479 1481 1480 1481 1482 1483 1484 1485 1487 1489 1490 1490 1491 1493 1493 1494 1494 1494 1493 1493 1493 1494 1493 1493
1482 1482 1482 1482 1482 1481 1480 1480 1479 1479 1480 1479 1479 1479 1478 1478 1476 1475 1474 1473 1474 1474 1475 1477 1478 1479 1480 1480 1481 1481 1482 1483 1484 1485 1485 1485 1486 1485 1484 1485 1485 1485 1484
1479 1479 1479 1479 1479 1478 1478 1477 1477 1476 1476 1476 1475 1474 1474 1474 1472 1471 1471 1470 1469 1470 1470 1470 1472 1472 1473 1473 1473 1473 1474 1475 1475 1476 1476 1476 1476 1476 1475 1476 1476 1475 1475
1476 1476 1475 1476 1475 1475 1474 1474 1475 1474 1472 1472 1472 1471 1472 1471 1469 1468 1468 1467 1467 1467 1466 1466 1466 1466 1466 1466 1466 1466 1466 1467 1467 1467 1467 1467 1467 1467 1467 1467 1466 1467 1465
1470 1471 1472 1472 1472 1471 1471 1471 1471 1470 1470 1469 1468 1468 1468 1467 1466 1466 1465 1464 1464 1464 1462 1463 1462 1462 1461 1461 1460 1460 1459 1460 1459 1458 1458 1457 1457 1457 1458 1457 1457 1457 1457
1465 1465 1466 1467 1467 1468 1467 1467 1467 1467 1467 1466 1465 1465 1465 1464 1463 1461 1461 1460 1459 1459 1460 1458 1457 1458 1457 1457 1456 1454 1453 1454 1453 1452 1450 1449 1448 1448 1448 1446 1446 1446 1447
1461 1461 1461 1462 1463 1463 1463 1464 1464 1464 1463 1463 1463 1463 1461 1460 1459 1458 1458 1457 1455 1454 1456 1452 1452 1453 1451 1451 1450 1450 1451 1449 1448 1447 1444 1443 1441 1440 1439 1438 1436 1436 1435
1456 1456 1457 1457 1458 1458 1459 1459 1459 1459 1459 1458 1458 1458 1457 1456 1454 1454 1451 1450 1453 1451 1448 1447 1446 1447 1446 1445 1445 1445 1444 1443 1443 1440 1440 1437 1434 1431 1432 1430 1428 1425 1425
1451 1451 1451 1451 1451 1451 1452 1453 1453 1453 1452 1451 1452 1452 1451 1449 1448 1448 1447 1447 1445 1443 1442 1442 1441 1442 1441 1439 1438 1437 1437 1436 1437 1435 1433 1429 1429 1424 1423 1422 1420 1416 1415
Wind_Speed
22 25 37 40 35 35 36 33 31 31 31 30 27 25 24 25 23 22 22 21 21 20 20 20 20 19 19 19 20 21 19 19 20 18 16 16 19 18 17 16 16 13 12
18 26 29 37 38 38 39 38 37 35 33 30 30 28 27 25 24 24 25 23 23 23 22 21 21 19 19 19 21 23 20 19 20 20 18 18 19 20 19 16 17 17 16
9 22 28 30 35 36 36 34 32 31 31 30 31 31 30 29 28 27 26 25 25 25 25 23 22 21 21 20 21 22 21 20 20 23 22 20 19 20 20 19 18 20 18
14 15 22 24 32 34 35 34 32 30 29 30 29 29 28 27 24 21 21 23 28 29 27 27 26 24 22 21 21 22 22 22 22 23 23 21 20 17 20 23 23 24 22
9 10 17 17 18 23 29 29 29 27 26 26 28 28 27 26 25 24 21 20 21 23 23 23 23 23 23 22 23 22 22 22 24 24 24 23 22 20 23 24 25 26 24
8 9 11 13 17 16 22 23 25 25 22 23 25 25 24 25 25 26 25 24 23 23 21 22 22 21 22 24 25 26 25 21 19 20 23 26 22 25 25 25 26 26 25
9 9 6 8 9 14 15 17 20 19 21 18 20 19 19 21 24 26 26 26 26 25 24 23 22 22 21 21 21 21 23 22 19 19 22 24 26 25 25 25 24 23 24
10 9 8 4 9 10 14 15 15 15 18 15 15 16 16 18 20 21 24 27 28 29 24 24 23 23 23 23 23 25 25 24 23 21 17 17 20 23 26 26 27 27 27
9 8 8 7 4 5 8 11 17 12 15 13 13 12 14 14 19 23 25 27 26 26 22 20 19 20 22 24 22 23 24 25 23 23 23 22 23 24 26 28 30 29 31
12 11 10 8 4 2 2 4 8 12 11 10 11 13 14 13 17 20 20 19 20 21 22 23 23 22 24 19 24 23 25 25 24 26 26 24 25 27 27 28 29 31 32
10 10 8 9 9 6 4 4 4 6 8 10 11 11 11 12 15 18 20 19 19 22 22 21 22 23 25 24 23 24 26 28 28 24 25 26 25 26 26 26 27 28 28
7 7 7 7 6 6 3 5 4 4 7 4 7 10 12 13 14 17 19 19 19 18 20 23 24 25 26 28 28 28 29 31 28 28 30 31 29 29 28 24 25 26 27
8 8 7 6 6 6 5 3 2 3 6 8 9 11 13 15 18 21 21 22 19 16 20 23 25 25 28 28 28 28 28 29 30 31 32 28 27 27 26 25 25 26 27
7 7 7 7 7 5 4 4 4 3 5 8 10 12 15 16 17 19 20 21 24 22 23 21 20 20 23 25 25 26 27 28 29 31 29 27 27 27 28 26 25 26 27
7 6 6 7 7 6 5 4 5 5 6 7 9 12 13 15 16 18 21 22 24 25 26 24 22 24 25 26 25 24 22 22 24 26 28 27 30 29 28 29 28 27 28
9 7 6 7 6 6 6 3 2 3 6 7 7 8 11 13 14 17 18 19 22 23 27 27 26 25 24 25 23 22 20 21 21 21 21 23 25 27 29 28 31 32 31
11 10 9 8 7 8 7 6 6 4 4 1 6 8 9 10 12 13 15 17 15 18 20 21 21 22 25 24 26 23 23 22 23 25 25 26 26 27 27 31 31 30 31
12 11 11 9 8 10 9 8 7 7 9 7 9 7 8 10 10 13 13 14 12 11 12 13 17 20 24 27 27 27 26 26 26 26 27 26 26 25 26 27 26 26 30
14 13 12 11 10 11 10 9 8 8 10 10 9 9 11 12 13 13 14 12 12 13 13 16 19 21 23 26 27 28 29 30 30 29 28 27 27 26 27 28 29 30 29
15 14 13 13 12 13 11 10 9 10 10 10 10 11 10 11 12 12 12 12 12 13 14 15 17 19 19 20 22 26 30 32 33 33 32 30 28 28 30 31 30 29 30
17 15 13 13 16 15 15 11 11 11 11 11 11 11 9 13 14 12 12 11 12 13 14 14 14 14 15 17 20 21 22 23 23 23 24 25 27 28 28 28 30 31 30
17 16 14 13 15 14 15 13 12 11 12 12 11 11 11 12 13 13 12 12 12 12 12 13 14 14 15 15 15 16 17 18 18 19 21 24 25 26 28 28 29 30 32
17 15 14 14 15 14 14 15 16 13 13 13 13 14 13 14 14 14 14 13 13 12 13 13 13 14 14 15 16 17 17 16 16 18 20 22 23 25 27 27 28 30 32
18 17 16 16 16 18 18 17 15 14 14 15 15 15 15 15 15 14 15 15 15 13 13 14 14 15 15 15 16 17 18 18 18 18 19 21 24 25 26 28 28 29 31
19 19 19 19 19 18 20 20 19 20 19 17 16 16 16 16 15 16 16 15 17 15 15 15 16 16 17 16 17 18 18 18 20 19 19 21 25 25 26 28 28 29 29
15 15 15 16 18 19 19 19 20 21 20 19 19 19 18 18 17 17 16 16 17 17 17 17 17 18 18 18 18 18 18 18 18 18 19 21 27 25 26 28 28 28 29
Wind_Direction
170 152 159 173 171 183 184 174 175 190 191 193 192 196 199 200 207 214 219 223 228 230 234 244 247 244 248 253 249 243 254 262 268 279 279 281 284 294 305 312 313 296 290
146 171 161 163 168 171 178 180 176 176 182 185 189 194 196 201 209 217 221 225 231 238 241 241 248 253 248 250 249 250 257 263 269 276 284 283 274 283 297 304 322 311 299
147 159 165 160 167 175 183 184 187 188 190 197 199 202 205 208 213 216 222 228 231 238 243 240 244 254 258 258 257 259 259 264 270 276 280 278 278 285 295 300 311 312 307
129 144 158 162 166 171 175 180 185 195 201 202 207 212 216 215 212 212 221 227 228 232 236 241 241 246 254 259 259 259 260 265 271 273 274 271 276 288 291 296 300 304 304
103 132 147 155 155 163 169 175 184 194 203 211 212 214 219 217 215 212 215 227 241 237 234 236 241 244 245 247 251 255 256 263 268 267 266 268 274 282 287 291 290 297 298
53 102 121 142 155 155 164 177 186 192 199 208 214 216 215 214 212 215 217 222 234 235 239 234 238 244 247 246 247 250 255 257 264 269 270 270 273 285 285 285 285 292 295
26 75 98 114 138 143 165 189 187 196 199 203 211 210 210 216 221 218 219 226 231 241 235 235 238 241 245 246 246 243 244 245 245 257 270 274 276 276 277 278 284 286 288
31 43 64 86 100 138 159 164 186 186 189 192 194 202 208 212 221 222 222 227 233 239 245 242 244 240 240 248 248 243 247 249 252 254 258 273 280 278 277 280 283 287 285
21 28 38 52 101 116 149 159 171 190 182 187 201 202 216 223 232 234 231 232 235 238 239 238 247 250 249 248 244 244 248 249 248 254 261 261 263 266 273 276 278 281 281
15 22 28 357 48 50 99 182 180 182 177 195 209 210 217 222 232 232 231 233 237 241 244 242 238 240 250 250 247 246 251 249 253 263 265 263 265 267 270 274 278 277 277
19 14 5 2 13 15 357 288 215 205 182 196 204 209 210 215 238 239 238 236 234 232 232 232 233 236 237 242 245 249 256 258 259 255 265 269 275 278 276 268 274 277 280
7 17 15 13 7 351 332 338 313 227 200 207 212 199 215 220 238 245 244 242 237 229 228 233 233 237 243 246 251 253 256 260 258 260 266 272 274 277 278 268 271 272 277
2 4 358 354 349 345 352 341 295 245 231 220 227 224 229 227 239 242 244 244 248 243 238 238 241 243 243 246 249 251 255 258 262 264 269 273 278 279 278 272 268 270 272
5 4 357 350 341 334 328 319 305 273 253 244 238 242 236 236 239 242 243 246 250 254 256 251 254 259 261 258 258 262 263 263 266 268 269 270 275 274 274 278 276 281 283
0 358 353 344 346 336 321 313 328 309 288 276 264 256 252 247 249 255 250 245 249 253 258 260 257 264 266 270 271 266 263 267 271 274 268 271 268 269 269 271 273 274 276
344 343 345 336 338 329 326 308 273 342 328 302 284 274 267 268 270 272 271 267 264 262 260 259 259 260 261 265 267 264 265 268 270 265 267 272 267 266 265 267 272 273 277
325 328 325 324 330 323 317 314 311 263 275 355 328 303 290 282 284 284 279 277 280 273 271 268 264 258 255 254 258 261 263 260 259 259 257 258 258 261 269 270 271 272 273
307 309 307 312 307 309 316 320 316 310 301 276 275 297 304 289 304 296 290 281 273 259 261 258 256 255 258 256 253 258 262 261 262 261 262 263 262 262 262 264 267 275 277
299 299 299 300 295 305 309 311 312 299 297 297 291 282 287 296 299 294 290 286 278 269 254 253 259 263 263 263 263 259 263 265 266 268 267 267 264 264 267 269 269 267 272
288 290 288 286 286 281 292 297 303 299 305 302 299 297 303 306 302 300 293 285 276 272 269 263 261 264 268 268 267 264 262 262 265 268 271 270 269 268 268 268 271 273 271
281 281 278 273 279 279 285 284 291 301 306 307 305 302 310 306 300 298 297 296 295 291 288 284 278 272 267 266 266 268 269 268 266 266 269 270 268 269 269 272 273 270 274
278 274 268 260 264 271 277 275 276 292 300 303 304 301 298 292 293 290 292 295 295 297 298 295 293 290 286 280 278 277 277 276 272 270 270 270 271 270 269 268 268 273 272
278 276 268 259 265 269 266 268 272 279 290 299 303 300 296 293 294 294 294 292 293 294 293 295 293 289 288 288 287 285 282 280 281 280 282 282 281 280 279 277 274 270 270
266 269 264 261 260 266 270 274 276 275 284 294 296 295 296 292 293 293 291 291 291 291 287 290 294 294 291 288 287 286 284 282 281 284 286 290 290 288 287 285 281 278 275
263 264 258 255 257 257 259 260 264 272 279 285 291 293 298 295 293 291 292 292 287 288 286 287 290 290 291 291 289 286 287 287 284 285 286 291 296 294 291 290 290 286 281
269 269 268 263 260 262 261 264 272 274 276 283 288 290 296 300 297 292 291 289 289 289 289 288 288 288 289 291 292 291 290 288 285 283 286 293 294 295 294 291 290 288 283